#timestamp,LO_Frequency,Hit,StdDev 
1622253615.1,286047002.4,N
1622253616.0,286047002.4,N
1622253635.8,286047000.3,N
1622253655.7,286046999.9,N
1622253675.5,286047002.0,N
1622253695.3,286047002.0,N
1622253715.2,286047001.8,N
1622253735.0,286047001.3,N
1622253735.9,286047001.3,N
1622253755.7,286047000.2,N
1622253775.6,286047000.2,N
1622253795.4,286047002.1,N
1622253815.3,286047002.2,N
1622253835.1,286047001.0,N
1622253855.8,286047001.0,N
1622253875.7,286046999.3,N
1622253895.6,286047000.6,N
1622253915.4,286047001.0,N
1622253935.2,286046998.8,N
1622253955.1,286046997.1,N
1622253956.0,286046997.1,N
1622253975.8,286046996.8,N
1622253995.6,286046996.5,N
1622254015.5,286046998.3,N
1622254035.3,286046998.8,N
1622254055.2,286046998.8,N
1622254075.9,286046997.2,N
1622254095.7,286046997.6,N
1622254115.6,286046997.9,N
1622254135.4,286046993.4,Y
1622254155.2,286046991.8,P
1622254175.1,286046994.1,N
1622254176.0,286046994.1,N
1622254195.8,286046994.7,N
1622254215.7,286046994.3,N
1622254235.5,286046992.5,Y
1622254255.3,286046998.9,P
1622254275.2,286047000.7,N
1622254295.0,286047000.7,N
1622254295.9,286047000.7,N
1622254315.8,286047000.2,N
1622254335.6,286046999.8,N
1622254355.4,286047000.1,N
1622254375.3,286047000.0,N
1622254395.1,286047002.3,N
1622254415.8,286046999.7,N
1622254435.7,286047002.8,N
1622254455.5,286047000.3,N
1622254475.4,286047001.2,N
1622254495.2,286047000.1,N
1622254515.0,286047001.1,N
1622254515.9,286047001.1,N
1622254535.8,286047001.0,N
1622254555.6,286047001.1,N
1622254575.5,286046999.4,N
1622254595.3,286046999.0,N
1622254615.1,286046997.2,N
1622254635.9,286046998.8,N
1622254655.7,286046998.2,N
1622254675.5,286047000.9,N
1622254695.4,286047000.6,N
1622254715.2,286047000.6,N
1622254735.1,286047000.0,N
1622254736.0,286047000.0,N
1622254755.8,286046999.8,N
1622254775.6,286047000.8,N
1622254795.5,286046998.6,N
1622254815.3,286046999.6,N
1622254835.1,286046998.3,N
1622254855.9,286046999.4,N
1622254875.7,286046996.8,N
1622254895.6,286046997.8,N
1622254915.4,286046998.4,N
1622254935.2,286046998.7,N
1622254955.1,286046998.7,N
1622254956.0,286046998.7,N
1622254975.8,286047000.5,N
1622254995.6,286047000.6,N
1622255015.5,286047000.7,N
1622255035.3,286046996.5,N
1622255055.2,286046997.4,N
1622255075.9,286046996.8,N
1622255095.7,286046996.7,N
1622255115.6,286046999.0,N
1622255135.4,286046997.1,N
1622255155.3,286046995.2,Y
1622255175.1,286046998.8,P
1622255176.0,286046998.8,P
1622255195.8,286046999.1,P
1622255215.7,286046999.5,Y
1622255235.5,286046999.1,P
1622255255.3,286046999.6,P
1622255275.2,286047001.2,P
1622255295.0,286047004.4,Y
1622255295.9,286047004.4,P
1622255315.8,286047003.5,N
1622255335.6,286047003.2,N
1622255355.4,286047007.5,Y
1622255375.3,286047003.4,P
1622255395.1,286047003.5,P
1622255415.9,286047004.3,P
1622255435.7,286047002.4,Y
1622255455.5,286046999.3,P
1622255475.4,286046999.5,N
1622255495.2,286046997.1,N
1622255515.0,286046999.3,N
1622255516.0,286046999.3,N
1622255535.8,286046999.5,N
1622255555.6,286046998.3,N
1622255575.5,286046999.0,N
1622255595.3,286046998.0,N
1622255615.1,286046997.6,N
1622255635.9,286046999.6,N
1622255655.7,286047000.1,N
1622255675.5,286046999.8,N
1622255695.4,286047001.0,N
1622255715.2,286047001.1,N
1622255735.1,286047000.6,N
1622255736.0,286047000.6,N
1622255755.8,286047000.5,N
1622255775.6,286047001.5,N
1622255795.5,286047000.3,N
1622255815.3,286046996.7,N
1622255835.1,286047000.9,N
1622255855.9,286046999.8,N
1622255875.7,286047001.9,N
1622255895.6,286046999.9,N
1622255915.4,286046998.9,N
1622255935.2,286046999.2,N
1622255955.1,286046997.4,N
1622255956.0,286046997.4,N
1622255975.8,286046999.2,N
1622255995.7,286046998.2,N
1622256015.5,286047002.6,N
1622256035.3,286046999.7,N
1622256055.2,286047001.8,N
1622256075.0,286047002.3,N
1622256075.9,286047002.3,N
1622256095.7,286046999.8,N
1622256115.6,286047002.2,N
1622256135.4,286047001.0,N
1622256155.3,286046998.5,N
1622256175.1,286046998.1,N
1622256195.8,286046999.9,N
1622256215.7,286047000.5,N
1622256235.5,286046998.2,N
1622256255.4,286047000.0,N
1622256275.2,286047002.7,N
1622256295.0,286047001.9,N
1622256295.9,286047001.9,N
1622256315.8,286047004.1,N
1622256335.6,286047005.6,Y
1622256355.4,286047003.8,P
1622256375.3,286047005.6,P
1622256395.1,286047005.3,N
1622256415.9,286047004.4,N
1622256435.7,286047000.7,N
1622256455.5,286047002.6,N
1622256475.4,286047000.5,N
1622256495.2,286047002.3,N
1622256515.0,286047003.3,N
1622256515.9,286047003.3,N
1622256535.8,286047005.1,N
1622256555.6,286047003.5,N
1622256575.5,286047003.2,N
1622256595.3,286047003.2,N
1622256615.1,286047002.9,N
1622256635.9,286047005.0,Y
1622256655.7,286047002.2,P
1622256675.5,286047002.6,P
1622256695.4,286047000.6,N
1622256715.2,286046996.8,Y
1622256735.1,286046994.0,P
1622256736.0,286046994.0,N
1622256755.8,286046994.5,N
1622256775.6,286046996.4,N
1622256795.5,286046996.1,N
1622256815.3,286046996.2,N
1622256835.1,286046995.2,N
1622256855.9,286046997.0,N
1622256875.7,286046999.4,N
1622256895.6,286046998.5,N
1622256915.4,286046997.0,N
1622256935.2,286046999.0,N
1622256955.1,286046998.2,N
1622256956.0,286046998.2,N
1622256975.8,286046999.0,N
1622256995.6,286046997.5,N
1622257015.5,286046997.6,N
1622257035.3,286046998.6,N
1622257055.2,286046997.4,N
1622257075.0,286046999.5,N
1622257075.9,286046999.5,N
1622257095.8,286047000.5,N
1622257115.6,286047000.4,N
1622257135.4,286047001.2,N
1622257155.3,286046999.2,N
1622257175.1,286046997.0,N
1622257195.8,286046999.6,N
